{"data":{"norad_id":37167,"epoch":"2026-09-20T04:20:27.662208Z","epoch_age_seconds":53249,"freshness":"FRESH","line1":"1 37167U 10047C   26263.18087572  .00001678  00000+0  17427-3 0  9998","line2":"2 37167  97.9891 245.8907 0018455 339.4795  20.5679 14.91211871864582","mean_motion":14.91211871,"eccentricity":0.0018455,"inclination_deg":97.9891,"raan_deg":245.8907,"arg_perigee_deg":339.4795,"mean_anomaly_deg":20.5679,"bstar":0.00017427,"rev_number":86458,"period_min":96.565754873876,"perigee_km":581.2882659833,"apogee_km":607.02299808814,"semimajor_km":6972.2926320357,"source":"CELESTRAK","updated_at":"2026-09-20T09:00:13.791462Z"}}